TimeEST,TemperatureF,Dew PointF,Humidity,Sea Level PressureIn,VisibilityMPH,Wind Direction,Wind SpeedMPH,Gust SpeedMPH,PrecipitationIn,Events,Conditions,WindDirDegrees,DateUTC
12:53 AM,48.0,46.0,93,30.22,5.0,North,6.9,-,N/A,,Overcast,360,2012-11-16 05:53:00
1:53 AM,46.9,46.0,97,30.21,4.0,North,8.1,-,N/A,,Overcast,10,2012-11-16 06:53:00
2:53 AM,46.9,46.0,97,30.22,3.0,North,6.9,-,N/A,,Overcast,360,2012-11-16 07:53:00
3:53 AM,48.0,46.0,93,30.22,4.0,North,6.9,-,N/A,,Overcast,10,2012-11-16 08:53:00
4:30 AM,48.2,46.4,93,30.21,6.0,North,10.4,-,N/A,,Overcast,10,2012-11-16 09:30:00
4:53 AM,48.0,46.0,93,30.22,6.0,NNE,10.4,-,N/A,,Overcast,20,2012-11-16 09:53:00
5:53 AM,48.0,45.0,89,30.22,8.0,NNE,12.7,-,N/A,,Overcast,20,2012-11-16 10:53:00
6:53 AM,48.0,45.0,89,30.24,5.0,NNE,10.4,-,N/A,,Overcast,20,2012-11-16 11:53:00
7:53 AM,48.0,45.0,89,30.25,8.0,NNE,10.4,-,N/A,,Overcast,30,2012-11-16 12:53:00
8:53 AM,48.9,45.0,86,30.27,8.0,NE,11.5,-,N/A,,Overcast,40,2012-11-16 13:53:00
9:53 AM,51.1,44.1,77,30.27,10.0,NNE,9.2,-,N/A,,Mostly Cloudy,20,2012-11-16 14:53:00
10:06 AM,51.8,44.6,76,30.27,10.0,NE,11.5,-,N/A,,Scattered Clouds,40,2012-11-16 15:06:00
10:53 AM,55.9,45.0,67,30.27,-9999.0,North,-9999.0,-,0.01,,Partly Cloudy,0,2012-11-16 15:53:00
11:53 AM,55.9,44.1,64,30.26,10.0,North,10.4,18.4,N/A,,Partly Cloudy,10,2012-11-16 16:53:00
12:53 PM,57.9,45.0,62,30.24,10.0,NNE,10.4,-,N/A,,Partly Cloudy,20,2012-11-16 17:53:00
1:53 PM,59.0,44.1,58,30.23,10.0,NE,11.5,-,N/A,,Partly Cloudy,40,2012-11-16 18:53:00
2:53 PM,60.1,44.1,55,30.23,10.0,NNE,10.4,16.1,N/A,,Scattered Clouds,20,2012-11-16 19:53:00
3:53 PM,59.0,43.0,55,30.24,10.0,NNE,8.1,-,N/A,,Partly Cloudy,20,2012-11-16 20:53:00
4:53 PM,55.0,45.0,69,30.25,10.0,Calm,Calm,-,N/A,,Clear,0,2012-11-16 21:53:00
5:53 PM,51.1,45.0,80,30.27,10.0,NNE,4.6,-,N/A,,Clear,30,2012-11-16 22:53:00
6:53 PM,51.1,43.0,74,30.29,10.0,NE,6.9,-,N/A,,Clear,40,2012-11-16 23:53:00
7:53 PM,48.0,42.1,80,30.30,10.0,NNE,4.6,-,N/A,,Clear,30,2012-11-17 00:53:00
8:53 PM,46.0,43.0,89,30.31,10.0,Calm,Calm,-,N/A,,Clear,0,2012-11-17 01:53:00
9:53 PM,46.9,42.1,83,30.32,10.0,NNE,6.9,-,N/A,,Clear,20,2012-11-17 02:53:00
10:53 PM,46.0,39.9,79,30.33,10.0,NE,6.9,-,N/A,,Clear,40,2012-11-17 03:53:00
11:53 PM,44.1,39.0,82,30.34,10.0,NE,4.6,-,N/A,,Clear,40,2012-11-17 04:53:00